Voltar ao catálogo

USA 40 R/B DEB

LostHEO
NORAD 23373·DEBRIS·🇺🇸 United States

Lançado Aug 8, 1989 de Cape Canaveral Space Force Station

Loading…

Próximas Passagens (próximas 24 horas)

TLE

ObsoletoSource: Space-Track

Época: May 27, 2026, 00:09 UTC

1 23373U 89061AV  26147.00650729  .00005579  00000-0  67025-2 0  9999
2 23373  57.0008 272.3298 3014615 207.2858 133.1448  8.74685092229618

Acompanhe USA 40 R/B DEB em tempo real com AllMySat

Download on the App Store